Flag for Bahrain Weather past 2 weeks in Riffa, Bahrain

Now
97 °F

Sunny.


Feels Like: 105 °F
Forecast: 87 / 100 °F
Wind: 10 mph from Northeast

Location: Bahrain International Airport

Current Time: Sep 16, 2014 at 3:39:21 PM

Latest Report: Sep 16, 2014 at 3:00 PM


Visibility: 10 mi

Pressure: 29.59 "Hg

Humidity: 44%

Dew point: 72 °F

Location of RiffaLocation

Historic Weather in Riffa — Graph

°F

Riffa temperature yesterday

Maximum temperature yesterday: 104 °F (at 12:00 PM)
Minimum temperature yesterday: 90 °F (at 12:00 AM)
Average temperature yesterday: 95 °F

Past Weeks' High & Low Weather Summary

 TemperatureHumidityPressure
High104 °F (Sep 4, 2:00 PM)75% (Sep 3, 5:00 AM)29.71 "Hg (Sep 3, 5:00 AM)
Low86 °F (Sep 16, 4:00 AM)15% (Sep 16, 9:00 AM)29.47 "Hg (Sep 1, 2:00 PM)
Average95 °F48%29.59 "Hg
* Reported Sep 1 2:00 PM — Sep 16 2:00 PM, Riffa, Weather by CustomWeather, © 2014

Note: Actual official high and low records may vary slightly from our data, if they occured in-between our weather recording intervals... More about our weather records

Advertising

Riffa weather history for previous 24 hours

 ConditionsComfort  
Time TempWeatherWind HumidityBarometerVisibility
2:00 PM
Sep 16
99 °FSunny.10 mph35%29.59 "Hg10 mi
1:00 PM100 °FSunny.10 mph21%29.62 "Hg10 mi
12:00 PM100 °FSunny.9 mph31%29.62 "Hg10 mi
11:00 AM100 °FSunny.9 mph25%29.65 "Hg10 mi
10:00 AM97 °FSunny.8 mph39%29.65 "Hg10 mi
9:00 AM102 °FSunny.5 mph15%29.65 "Hg10 mi
8:00 AM97 °FSunny.2 mph28%29.65 "Hg10 mi
7:00 AM91 °FPassing clouds.6 mph38%29.62 "HgN/A
6:00 AM90 °FPassing clouds.3 mph41%29.62 "HgN/A
5:00 AM90 °FClear.7 mph59%29.59 "Hg10 mi
4:00 AM86 °FClear.1 mph49%29.59 "Hg10 mi
3:00 AM91 °FClear.5 mph34%29.56 "Hg10 mi
2:00 AM91 °FClear.5 mph34%29.56 "Hg10 mi
1:00 AM88 °FClear.No wind33%29.56 "Hg10 mi
12:00 AM93 °FClear.3 mph24%29.59 "Hg10 mi
11:00 PM
Sep 15
91 °FClear.2 mph34%29.59 "Hg10 mi
10:00 PM93 °FClear.2 mph41%29.62 "Hg10 mi
9:00 PM91 °FClear.No wind49%29.62 "Hg10 mi
8:00 PM93 °FClear.3 mph44%29.62 "Hg10 mi
7:00 PM93 °FPassing clouds.5 mph49%29.62 "HgN/A
6:00 PM95 °FClear.9 mph47%29.59 "Hg10 mi
5:00 PM97 °FSunny.10 mph37%29.59 "Hg10 mi
4:00 PM99 °FSunny.12 mph35%29.62 "Hg10 mi
3:00 PM100 °FSunny.12 mph31%29.62 "Hg10 mi
Weather by CustomWeather, © 2014

See weather overviewHow to use our weather pages